• In Lithuania
  • List of Countries
  • For 7 days
  • Water Temperature
  • Satellite Maps
  • Weather Map
  • Weather Widgets
  • user-avatar
    Login

    Hourly Weather Dimapur

    Today, 26 September, Wednesday

    Time Temperature Precipitation Wind Pressure Humidity
    00:00 +24°C° 0 mm 0 mps 742 mmHg 96%
    01:00 +24°C° 0.1 mm 0 mps 742 mmHg 96%
    02:00 +24°C° 0.1 mm 0 mps 742 mmHg 96%
    03:00 +23°C° 0.1 mm 0 mps 741 mmHg 96%
    04:00 +23°C° 0.2 mm 0 mps 742 mmHg 96%
    05:00 +23°C° 0.2 mm 0 mps 742 mmHg 96%
    06:00 +23°C° 0.2 mm 0 mps 742 mmHg 95%
    07:00 +25°C° 0.2 mm 0 mps 742 mmHg 90%
    08:00 +27°C° 0.2 mm 0 mps 743 mmHg 84%
    09:00 +29°C° 0.2 mm 0 mps 743 mmHg 79%
    10:00 +32°C° 0.7 mm 1 mps 743 mmHg 77%
    11:00 +32°C° 0.7 mm 1 mps 742 mmHg 75%
    12:00 +33°C° 0.7 mm 1 mps 742 mmHg 73%
    13:00 +33°C° 1.2 mm 1 mps 741 mmHg 74%
    14:00 +33°C° 1.2 mm 1 mps 741 mmHg 75%
    15:00 +33°C° 1.2 mm 1 mps 740 mmHg 77%
    16:00 +31°C° 1.3 mm 1 mps 740 mmHg 82%
    17:00 +28°C° 1.3 mm 0 mps 740 mmHg 87%
    18:00 +26°C° 1.3 mm 0 mps 740 mmHg 93%
    19:00 +26°C° 0.9 mm 0 mps 741 mmHg 93%
    20:00 +25°C° 0.9 mm 0 mps 741 mmHg 94%
    21:00 +25°C° 0.9 mm 0 mps 742 mmHg 95%
    22:00 +25°C° 0.2 mm 0 mps 742 mmHg 95%
    23:00 +24°C° 0.2 mm 0 mps 742 mmHg 95%

    Tomorrow, 27 September, Thursday

    Time Temperature Precipitation Wind Pressure Humidity
    00:00 +24°C° 0.2 mm 0 mps 742 mmHg 95%
    01:00 +24°C° 0.2 mm 0 mps 742 mmHg 95%
    02:00 +24°C° 0.2 mm 0 mps 742 mmHg 95%
    03:00 +24°C° 0.2 mm 0 mps 741 mmHg 96%
    04:00 +24°C° 0.1 mm 0 mps 742 mmHg 95%
    05:00 +24°C° 0.1 mm 0 mps 742 mmHg 95%
    06:00 +24°C° 0.1 mm 0 mps 742 mmHg 95%
    07:00 +26°C° 0.1 mm 0 mps 743 mmHg 87%
    08:00 +28°C° 0.1 mm 0 mps 743 mmHg 79%
    09:00 +30°C° 0.1 mm 0 mps 744 mmHg 71%
    10:00 +31°C° 0.3 mm 0 mps 743 mmHg 67%
    11:00 +34°C° 0.3 mm 1 mps 743 mmHg 64%
    12:00 +35°C° 0.3 mm 1 mps 742 mmHg 60%
    13:00 +35°C° 0.4 mm 1 mps 741 mmHg 63%
    14:00 +34°C° 0.4 mm 1 mps 741 mmHg 66%
    15:00 +34°C° 0.4 mm 1 mps 740 mmHg 69%
    16:00 +32°C° 0.4 mm 1 mps 740 mmHg 76%
    17:00 +28°C° 0.4 mm 0 mps 740 mmHg 82%
    18:00 +27°C° 0.4 mm 0 mps 740 mmHg 89%
    19:00 +26°C° 0.5 mm 0 mps 741 mmHg 90%
    20:00 +26°C° 0.5 mm 0 mps 742 mmHg 91%
    21:00 +25°C° 0.5 mm 0 mps 743 mmHg 92%
    22:00 +25°C° 0.4 mm 0 mps 742 mmHg 92%
    23:00 +25°C° 0.4 mm 0 mps 742 mmHg 93%

    Day after tomorrow, 28 September, Friday

    Time Temperature Precipitation Wind Pressure Humidity
    00:00 +25°C° 0.4 mm 0 mps 742 mmHg 93%
    01:00 +25°C° 0.3 mm 0 mps 742 mmHg 93%
    02:00 +25°C° 0.3 mm 0 mps 742 mmHg 93%
    03:00 +24°C° 0.3 mm 0 mps 742 mmHg 94%
    04:00 +24°C° 0.1 mm 0 mps 742 mmHg 94%
    05:00 +24°C° 0.1 mm 0 mps 742 mmHg 93%
    06:00 +24°C° 0.1 mm 0 mps 743 mmHg 93%
    07:00 +26°C° 0.1 mm 0 mps 743 mmHg 86%
    08:00 +28°C° 0.1 mm 0 mps 744 mmHg 79%
    09:00 +30°C° 0.1 mm 0 mps 744 mmHg 72%
    10:00 +33°C° 0.2 mm 1 mps 744 mmHg 67%
    11:00 +34°C° 0.2 mm 1 mps 743 mmHg 62%
    12:00 +35°C° 0.2 mm 1 mps 743 mmHg 58%
    13:00 +35°C° 0.2 mm 1 mps 742 mmHg 59%
    14:00 +35°C° 0.2 mm 1 mps 741 mmHg 60%
    15:00 +34°C° 0.2 mm 1 mps 740 mmHg 62%
    16:00 +33°C° 0.1 mm 1 mps 741 mmHg 69%
    17:00 +31°C° 0.1 mm 1 mps 741 mmHg 77%
    18:00 +27°C° 0.1 mm 0 mps 741 mmHg 85%
    19:00 +26°C° 0.1 mm 0 mps 742 mmHg 87%
    20:00 +26°C° 0.1 mm 0 mps 742 mmHg 88%
    21:00 +26°C° 0.1 mm 0 mps 743 mmHg 90%
    22:00 +25°C° 0.2 mm 0 mps 743 mmHg 90%
    23:00 +25°C° 0.2 mm 0 mps 743 mmHg 91%

    29 September, Saturday

    Time Temperature Precipitation Wind Pressure Humidity
    00:00 +25°C° 0.2 mm 0 mps 743 mmHg 91%
    01:00 +25°C° 0.3 mm 0 mps 742 mmHg 92%
    02:00 +25°C° 0.3 mm 0 mps 742 mmHg 92%
    03:00 +24°C° 0.3 mm 0 mps 742 mmHg 92%
    04:00 +24°C° 0.1 mm 0 mps 742 mmHg 92%
    05:00 +24°C° 0.1 mm 0 mps 742 mmHg 92%
    06:00 +24°C° 0.1 mm 0 mps 743 mmHg 92%
    07:00 +26°C° 0.1 mm 0 mps 743 mmHg 86%
    08:00 +28°C° 0.1 mm 0 mps 744 mmHg 80%
    09:00 +30°C° 0.1 mm 0 mps 744 mmHg 73%
    10:00 +33°C° 0.2 mm 1 mps 743 mmHg 68%
    11:00 +34°C° 0.2 mm 1 mps 743 mmHg 62%
    12:00 +35°C° 0.2 mm 1 mps 742 mmHg 56%
    13:00 +35°C° 0.1 mm 1 mps 741 mmHg 58%
    14:00 +35°C° 0.1 mm 1 mps 740 mmHg 59%
    15:00 +35°C° 0.1 mm 1 mps 740 mmHg 61%
    16:00 +33°C° 0.1 mm 1 mps 740 mmHg 69%
    17:00 +29°C° 0.1 mm 0 mps 740 mmHg 76%
    18:00 +27°C° 0.1 mm 0 mps 740 mmHg 84%
    19:00 +27°C° 0.1 mm 0 mps 741 mmHg 86%
    20:00 +26°C° 0.1 mm 0 mps 741 mmHg 87%
    21:00 +26°C° 0.1 mm 0 mps 742 mmHg 89%
    22:00 +25°C° 0.3 mm 0 mps 742 mmHg 90%
    23:00 +25°C° 0.3 mm 0 mps 742 mmHg 91%

    30 September, Sunday

    Time Temperature Precipitation Wind Pressure Humidity
    00:00 +25°C° 0.3 mm 0 mps 742 mmHg 92%
    01:00 +25°C° 0.3 mm 0 mps 741 mmHg 92%
    02:00 +24°C° 0.3 mm 0 mps 741 mmHg 92%
    03:00 +24°C° 0.3 mm 0 mps 741 mmHg 92%
    04:00 +24°C° 0.1 mm 0 mps 741 mmHg 92%
    05:00 +24°C° 0.1 mm 0 mps 742 mmHg 92%
    06:00 +24°C° 0.1 mm 0 mps 742 mmHg 91%
    07:00 +26°C° 0.2 mm 0 mps 742 mmHg 84%
    08:00 +28°C° 0.2 mm 0 mps 743 mmHg 77%
    09:00 +31°C° 0.2 mm 0 mps 743 mmHg 69%
    10:00 +32°C° 0.2 mm 0 mps 742 mmHg 64%
    11:00 +35°C° 0.2 mm 1 mps 742 mmHg 59%
    12:00 +36°C° 0.2 mm 1 mps 741 mmHg 53%
    13:00 +35°C° 0.1 mm 1 mps 740 mmHg 55%
    14:00 +35°C° 0.1 mm 1 mps 740 mmHg 57%
    15:00 +35°C° 0.1 mm 1 mps 739 mmHg 59%
    16:00 +33°C° 0.1 mm 1 mps 739 mmHg 67%
    17:00 +29°C° 0.1 mm 0 mps 739 mmHg 76%
    18:00 +27°C° 0.1 mm 0 mps 740 mmHg 84%
    19:00 +26°C° 0.1 mm 0 mps 740 mmHg 86%
    20:00 +26°C° 0.1 mm 0 mps 741 mmHg 87%
    21:00 +25°C° 0.1 mm 0 mps 741 mmHg 89%
    22:00 +25°C° 0.1 mm 0 mps 741 mmHg 90%
    23:00 +25°C° 0.1 mm 0 mps 741 mmHg 90%

    1 October, Monday

    Time Temperature Precipitation Wind Pressure Humidity
    00:00 +27°C° 0.1 mm 1 mps 741 mmHg 91%
    01:00 +24°C° 0.3 mm 0 mps 741 mmHg 92%
    02:00 +24°C° 0.3 mm 0 mps 741 mmHg 92%
    03:00 +24°C° 0.3 mm 0 mps 741 mmHg 92%
    04:00 +24°C° 0.2 mm 0 mps 741 mmHg 92%
    05:00 +24°C° 0.2 mm 0 mps 742 mmHg 92%
    06:00 +24°C° 0.2 mm 0 mps 742 mmHg 92%
    07:00 +26°C° 0.3 mm 0 mps 743 mmHg 84%
    08:00 +28°C° 0.3 mm 0 mps 743 mmHg 76%
    09:00 +31°C° 0.3 mm 0 mps 743 mmHg 68%
    10:00 +34°C° 0.2 mm 1 mps 743 mmHg 63%
    11:00 +35°C° 0.2 mm 1 mps 742 mmHg 59%
    12:00 +36°C° 0.2 mm 1 mps 742 mmHg 54%
    13:00 +35°C° 0.3 mm 1 mps 741 mmHg 56%
    14:00 +35°C° 0.3 mm 1 mps 740 mmHg 58%
    15:00 +35°C° 0.3 mm 1 mps 740 mmHg 60%
    16:00 +33°C° 0.3 mm 1 mps 740 mmHg 68%
    17:00 +31°C° 0.3 mm 1 mps 740 mmHg 76%
    18:00 +27°C° 0.3 mm 0 mps 740 mmHg 84%
    19:00 +26°C° 0.1 mm 0 mps 741 mmHg 86%
    20:00 +26°C° 0.1 mm 0 mps 742 mmHg 87%
    21:00 +25°C° 0.1 mm 0 mps 742 mmHg 89%
    22:00 +25°C° 0.1 mm 0 mps 742 mmHg 89%
    23:00 +25°C° 0.1 mm 0 mps 742 mmHg 90%
    Show more